Home > Weather > Nouadhibou > Past weeks

Flag for Mauritania Past Weather in Nouadhibou, Mauritania — Yesterday and Last 2 Weeks

Now
79 °F

Clear.


Feels Like: 79 °F
Forecast: 65 / 79 °F
Wind: 23 mph from North

Location: Nouadhibou Airport

Current Time: May 31, 2016 at 12:13:07 PM

Latest Report: May 31, 2016 at 11:00 AM


Visibility: 5 mi

Pressure: 29.95 "Hg

Humidity: 39%

Dew Point: 52 °F

Location of NouadhibouLocation

Past Weather in Nouadhibou — Graph

°F

Nouadhibou Temperature Yesterday

Maximum temperature yesterday: 84 °F (at 1:00 PM)
Minimum temperature yesterday: 66 °F (at 2:00 AM)
Average temperature yesterday: 70 °F

High & Low Weather Summary for the Past Weeks

 TemperatureHumidityPressure
High84 °F (May 19, 1:00 PM)94% (May 22, 2:00 AM)30.09 "Hg (May 22, 2:00 AM)
Low63 °F (May 17, 6:00 AM)29% (May 19, 1:00 PM)29.89 "Hg (May 25, 5:00 PM)
Average69 °F73%30.00 "Hg
* Reported May 16 10:00 AM — May 31 10:00 AM, Nouadhibou, Weather by CustomWeather, © 2016

Note: Actual official high and low records may vary slightly from our data, if they occured in-between our weather recording intervals... More about our weather records

Advertising

Nouadhibou Weather History for the Previous 24 Hours

Scroll right to see more
 ConditionsComfort  
Time TempWeatherWind HumidityBarometerVisibility
10:00 AM
Tue, May 31
73 °FClear.25 mph50%29.95 "Hg5 mi
9:00 AM70 °FClear.26 mph60%29.92 "Hg5 mi
8:00 AM66 °FClear.22 mph68%29.92 "Hg5 mi
7:00 AM64 °FClear.20 mph73%29.92 "Hg5 mi
6:00 AM64 °FClear.21 mph73%29.89 "Hg5 mi
5:00 AM64 °FClear.17 mph78%29.89 "Hg5 mi
4:00 AM64 °FClear.18 mph78%29.89 "Hg5 mi
3:00 AM66 °FClear.20 mph78%29.89 "Hg5 mi
2:00 AM66 °FClear.20 mph78%29.89 "Hg5 mi
1:00 AM66 °FClear.23 mph78%29.92 "Hg5 mi
12:00 AM66 °FClear.23 mph78%29.95 "Hg5 mi
11:00 PM
Mon, May 30
66 °FSandstorm.22 mph73%29.95 "Hg4 mi
10:00 PM68 °FSandstorm.24 mph69%29.95 "Hg1 mi
9:00 PM68 °FSandstorm.17 mph69%29.92 "Hg1 mi
8:00 PM68 °FSandstorm.20 mph73%29.92 "Hg1 mi
1:00 PM84 °FClear.25 mph31%29.95 "Hg4 mi
12:00 PM81 °FClear.25 mph34%29.98 "Hg4 mi
Weather by CustomWeather, © 2016

See weather overviewHow to use our weather pages